SCP
-0 0 0 0 0 0 0 0 0 0 0 0 0 0 0 0 0 0 0 0 0 0 0 0 0 0 0 0 0 0 0 0 0 0 0 0 0 0 0 0 0 0 0 0 0
0 0 0 0 0 0 0 0 0 0 0 0 0 0 0 0 0 0 0 0 0 0 0 0 0 0 0 0 0 0 0 0 0 0 0 0 0 0 0 0 0 0 0 0 0
0 0 0 0 0 0 0 0 0 0 0 0 0 0 0 0 0 0 0 0 0 0 0 0 0 0 0 0 0 0 0 0 0 0 0 0 0 0 0 0 0 0 0 0 0
0 0 0 0 0 0 0 0 0 0 0 0 0 0 0 0 0 0 0 0 0 0 0 0 0 0 0 0 0 0 0 0 0 0 0 0 0 0 0 0 0 0 0 0 0
0 0 0 0 0 0 0 0 0 0 0 0 0 0 0 0 0 0 0 0 0 0 0 0 0 0 0 0 0 0 0 0 0 0 0 0 0 0 0 0 0 0 0 0 0
0 0 0 0 0 0 0 0 0 0 0 0 0 0 0 0 0 0 0 0 0 0 0 0 0 0 0 0 0 0 0 0 0 0 0 0 0 0 0 0 0 0 0 0 0
0 0 0 0 0 0 0 0 0 0 0 0 0 0 0 0 0 0 0 0 0 0 0 0 0 0 0 0 0 0 0 0 0 0 0 0 0 0 0 0 0 0 0 0 0
0 0 0 0 0 0 0 0 0 0 0 0 0 0 0 0 0 0 0 0 0 0 0 0 0 0 0 0 0 0 0 0 0 0 0 0 0 0 0 0 0 0 0 0 0
0 0 0 0 0 0 0 0 0 0 0 0 0 0 0 0 0 0 0 0 0 0 0 0 0 0 0 0 0 0 0 0 0 0 0 0 0 0 0 0 0 0 0 0 0
0 0 0 0 0 0 0 0 0 0 0 0 0 0 0 0 0 0 0 0 0 0 0 0 0 0 0 0 0 0 0 0 0 -0 0 0 0 0 0 0 0 0 0 0 0
0 0 0 0 0 0 0 -0 0 0 0 0 0 0 0 0 0 0 0 0 0 0 0 0 0 0 0 0 0 0 0 -0 -0 0 0 0 0 0 0 0 0 0 0 0 0
0 0 0 0 0 0 0 0 -0 0 0 0 0 0 0 0 0 0 0 0 0 0 0 0 0 0 0 0 0 0 0 0 0 0 0 -0 0 0 0 0 0 0 0 0 0
0 0 0 0 0 0 0 0 0 0 -0 0 0 0 0 0 0 0 0 0 0 0 0 0 0 0 0 0 0 0 0 0 0 0 0 0 -0 -0 0 0 0 0 0 0 0
0 0 0 0 0 0 0 0 0 -0 0 0 0 0 0 0 0 0 0 0 0 0 0 0 0 0 0 0 0 0 0 0 0 0 0 0 -0 -0 0 0 0 0 0 0 0
0 0 0 0 0 0 0 0 0 0 -0 0 0 0 0 0 0 0 0 0 0 0 0 0 0 0 0 0 0 0 0 0 0 0 0 0 0 -0 -0 0 0 0 0 0 0
0 0 0 0 0 0 0 0 0 0 0 0 0 0 0 0 0 0 0 0 0 0 0 0 0 0 0 0 0 0 0 0 0 0 0 0 0 -0 0 0 0 0 0 0 0
0 0 0 0 0 0 0 0 0 0 0 0 0 0 0 0 0 0 0 0 0 0 0 0 0 0 0 0 0 0 0 0 0 0 0 0 0 0 0 0 0 0 0 0 0
0 0 0 0 0 0 0 0 0 0 0 0 0 0 0 0 0 0 0 0 0 0 0 0 0 0 0 0 0 0 0 0 0 0 0 0 0 0 0 0 0 -0 0 0 0
0 0 0 0 0 0 0 0 0 0 0 0 0 0 0 0 0 0 0 0 0 0 0 0 0 0 0 0 0 0 0 0 0 0 0 0 0 0 0 0 0 0 0 0 0
0 0 0 0 0 0 0 0 0 0 0 0 0 0 0 0 0 0 0 0 0 0 0 0 0 0 0 0 0 0 0 0 0 0 0 0 0 0 0 0 0 0 0 0 0
0 0 -0 0 0 0 0 0 0 0 0 0 0 0 0 0 0 0 0 0 0 0 0 0 0 0 0 0 0 0 0 0 0 0 0 0 0 0 0 0 0 0 0 0 0
0 0 0 0 0 0 0 0 0 0 0 0 0 0 0 0 0 0 0 0 0 0 0 0 0 0 0 0 0 0 0 0 0 0 0 0 0 0 0 0 0 0 0 0 0
0 0 0 0 0 0 0 0 0 0 0 0 0 0 0 0 0 0 0 0 0 0 0 0 0 0 0 0 0 0 0 0 0 0 0 0 0 0 0 0 0 0 0 0 0
-0 0 0 0 0 0 0 0 0 0 0 0 0 0 0 0 0 0 0 0 0 0 0 0 0 0 0 0 0 0 0 0 0 0 0 0 0 0 0 0 0 0 0 0 0
-0 -0 0 0 0 0 0 0 0 0 0 0 0 0 0 0 0 0 0 0 0 0 0 0 0 0 0 0 0 0 0 0 0 0 0 0 0 0 0 0 0 0 0 0 0
-0 -0 0 0 0 0 -0 0 0 0 0 0 0 0 0 0 0 0 0 0 0 0 0 0 0 0 0 0 0 0 0 0 0 0 0 0 0 0 0 0 0 0 -0 -0 0
0 0 0 -0 0 0 0 0 -0 0 -0 -0 0 0 0 0 -0 0 0 0 0 0 0 0 0 0 0 0 0 0 0 0 0 0 0 0 0 0 0 0 0 0 0 0 0
Wind_Speed_500mb
14 16 17 18 19 19 19 21 23 26 26 26 26 29 28 30 29 31 33 28 19 15 21 16 13 15 19 20 24 17 4 9 11 12 13 10 9 11 15 23 24 24 15 16 45
18 18 19 21 22 24 23 23 24 25 28 28 27 28 27 29 30 37 36 32 26 22 18 14 10 10 11 12 19 12 9 16 9 4 8 11 7 18 13 12 13 25 26 27 49
22 25 26 27 26 25 26 27 28 28 27 28 27 26 25 27 30 12 10 31 32 22 17 12 16 15 6 9 12 13 11 7 5 5 9 9 6 11 12 10 30 55 45 41 54
27 28 28 31 34 33 31 31 30 32 30 29 27 26 23 20 11 5 2 9 18 18 14 15 15 20 6 8 21 5 11 12 6 8 8 6 13 10 29 22 21 46 50 51 57
28 30 32 34 36 37 36 34 33 32 32 31 26 24 23 16 22 22 19 17 15 17 17 19 17 8 14 9 6 9 7 9 16 17 20 19 22 20 24 49 24 23 46 57 59
29 30 32 37 42 37 34 34 34 32 33 31 28 24 22 12 21 21 19 18 15 21 24 26 9 11 10 10 18 13 10 17 18 24 16 10 11 10 25 48 51 35 40 58 65
28 29 33 36 44 38 37 35 34 32 31 29 28 26 28 38 26 21 18 16 19 25 27 28 25 13 4 4 8 7 7 10 18 15 10 4 20 27 62 53 47 67 64 61 61
32 33 34 37 41 33 40 38 35 31 28 27 24 23 20 24 24 24 23 19 17 24 27 23 25 15 10 5 2 7 1 4 2 16 7 11 28 7 7 44 62 55 69 65 73
37 38 42 44 44 38 39 44 33 25 20 19 18 16 18 17 20 25 22 17 14 14 18 18 18 11 5 3 4 3 10 10 9 16 8 12 19 13 7 10 41 61 64 67 74
44 42 43 46 46 43 43 44 23 16 11 12 17 10 23 13 14 16 21 20 11 12 11 11 9 5 2 8 12 12 11 11 10 11 8 9 44 34 53 39 40 40 51 66 69
46 45 46 43 44 42 42 33 15 7 9 20 16 20 12 16 13 14 20 21 13 10 10 7 5 19 28 18 4 5 6 7 5 6 6 18 36 37 39 34 42 62 73 68 76
51 48 48 43 40 34 33 18 19 22 27 41 51 53 43 20 9 22 23 20 14 13 9 4 17 16 5 11 12 9 8 12 8 3 5 13 35 37 35 28 51 61 65 86 87
44 44 41 40 38 26 32 24 33 28 12 20 22 20 27 33 18 24 33 19 10 12 16 15 7 7 10 7 10 8 11 7 10 5 9 12 23 16 16 26 45 60 69 71 84
56 53 49 43 28 21 28 28 35 25 7 12 9 9 14 13 9 19 34 17 8 21 13 14 5 10 8 10 14 9 8 4 4 2 9 2 14 14 15 23 13 33 47 67 74
60 65 60 39 41 40 28 29 29 9 9 7 7 13 15 12 9 9 21 12 12 12 12 13 13 9 8 10 14 10 5 6 3 3 8 5 7 17 11 16 22 16 41 50 57
49 49 50 47 32 42 32 22 20 4 18 8 12 13 9 10 6 11 8 6 4 9 1 6 2 6 8 6 5 10 10 13 9 5 5 16 15 9 11 12 9 5 15 23 28
55 54 48 38 34 24 25 11 6 12 7 9 11 11 9 13 11 12 12 13 13 9 10 1 8 4 7 8 7 5 11 2 5 2 14 6 9 11 20 19 12 7 20 17 23
58 62 64 54 38 47 39 2 22 14 17 2 6 5 11 13 9 15 12 8 15 4 7 14 10 18 12 11 13 13 12 10 15 9 7 3 15 14 21 18 35 36 26 21 27
64 70 77 47 28 49 32 24 22 21 16 19 6 8 8 7 10 9 17 12 18 29 21 11 10 5 3 2 6 12 12 5 9 3 6 10 15 20 19 21 10 15 23 31 33
61 66 65 19 30 42 24 56 21 21 3 9 22 18 16 10 15 17 18 11 12 29 3 14 3 1 4 3 4 9 2 5 4 4 9 10 11 15 10 13 12 12 23 34 31
52 27 20 25 28 38 31 35 31 58 20 25 32 17 15 15 13 9 11 9 13 11 6 8 8 0 4 16 23 9 7 4 5 8 9 4 12 14 15 14 18 21 34 32 32
37 5 10 31 15 14 30 15 20 18 35 46 5 26 33 22 13 29 25 16 20 14 16 10 9 10 18 2 2 4 12 14 9 12 9 5 21 4 10 5 11 7 12 29 36
22 26 34 34 10 17 15 19 11 30 17 10 16 24 25 28 16 17 12 8 28 21 19 11 7 2 11 8 8 9 13 9 7 5 17 12 14 3 5 5 5 7 3 2 20
19 8 9 20 38 28 34 20 29 23 15 17 15 14 9 19 30 12 13 5 10 12 32 21 6 11 19 11 9 9 11 25 12 7 18 34 16 5 4 9 11 14 4 11 19
15 7 13 6 9 13 18 18 40 29 10 15 11 32 39 16 30 32 30 7 4 16 1 16 19 29 45 16 10 10 9 19 34 49 17 49 28 17 16 17 14 22 29 23 27
15 10 22 8 15 16 8 9 30 26 11 23 15 29 30 12 23 26 10 12 29 9 13 6 13 6 29 35 16 24 21 21 41 40 37 44 31 3 13 25 21 35 38 36 43
32 34 22 20 6 5 8 18 25 34 17 12 22 27 20 26 19 23 34 32 21 6 22 21 15 13 11 13 19 10 46 36 25 21 31 33 38 10 20 27 33 50 48 64 77
Wind_Direction_500mb
351 339 336 327 322 318 319 315 314 312 310 307 301 299 293 298 289 281 263 246 254 279 279 276 262 257 234 209 186 190 178 232 230 200 244 262 181 197 183 165 180 197 208 205 187
345 336 330 326 322 317 316 312 310 307 305 307 303 300 297 300 293 277 264 238 246 280 280 264 214 208 192 188 193 175 185 220 212 217 261 283 219 186 168 172 198 205 204 190 185
347 340 335 331 325 318 313 313 309 303 298 302 302 299 301 310 305 277 280 242 258 269 252 250 198 184 198 188 205 196 218 204 266 276 275 276 271 207 168 224 209 207 198 187 186
352 345 338 333 329 324 319 311 306 303 299 300 296 294 296 299 280 290 258 264 272 253 229 191 200 172 160 204 215 233 251 253 259 268 295 268 297 273 222 227 251 235 221 199 197
356 352 347 342 333 324 317 311 306 301 295 296 289 283 285 274 258 269 273 277 267 226 200 196 229 219 164 189 224 221 261 261 254 256 264 268 251 242 250 238 241 217 214 214 214
3 359 354 350 342 332 320 310 305 300 297 294 285 277 268 248 263 265 269 268 253 218 207 206 235 269 273 215 167 193 222 260 254 249 241 235 256 232 244 237 230 214 212 220 220
360 356 353 351 350 342 331 318 306 297 293 287 279 272 262 263 262 262 267 262 240 224 221 220 229 252 300 285 279 190 253 282 224 223 239 199 280 231 247 239 235 229 231 228 227
346 346 346 346 349 338 339 329 312 295 283 276 267 264 259 259 253 249 251 244 240 227 222 223 225 244 243 197 18 289 123 265 198 149 203 150 264 226 320 231 235 236 234 230 229
337 337 338 340 344 342 337 334 315 288 267 255 252 240 262 260 245 237 230 225 220 216 208 204 191 210 188 154 343 190 275 219 301 199 139 172 268 262 224 241 243 239 234 233 231
331 330 331 332 335 337 341 341 324 305 273 254 233 267 243 246 233 226 217 208 190 175 162 178 189 167 226 157 222 204 220 251 232 206 198 210 262 268 269 266 255 253 245 237 236
322 322 325 328 326 330 338 342 337 295 282 244 261 229 241 232 237 217 203 194 179 179 182 209 149 213 205 199 178 147 222 262 277 203 211 229 257 261 272 262 255 249 247 243 238
309 311 315 321 322 322 334 8 346 303 298 277 257 245 249 225 236 218 194 180 175 195 129 49 237 237 244 207 229 230 250 260 259 146 205 292 273 274 265 250 238 244 237 241 241
304 306 308 318 323 309 335 337 335 328 264 281 240 235 234 229 227 212 193 187 178 169 195 178 222 146 167 180 188 228 207 219 236 312 227 307 274 257 259 247 255 245 245 245 243
288 292 299 304 309 301 319 323 332 332 33 260 217 224 188 170 241 203 193 186 186 205 174 230 226 176 173 212 166 247 206 162 170 121 248 170 286 281 276 277 254 254 242 243 243
291 287 282 285 290 293 298 305 324 337 321 216 185 165 168 187 144 195 188 181 180 183 126 236 174 176 184 208 167 227 118 141 109 183 355 232 280 272 272 277 263 271 256 246 243
320 315 295 277 263 277 281 276 305 60 245 245 153 173 148 199 199 133 167 191 135 132 127 253 329 200 200 79 36 132 70 43 47 68 296 199 190 232 228 238 286 295 311 246 241
318 316 310 294 259 257 245 260 297 218 338 254 204 167 193 188 196 171 168 177 170 105 221 192 215 188 156 95 22 97 101 327 341 347 231 151 183 262 267 248 232 255 279 254 230
314 311 299 286 269 237 246 233 222 224 240 304 143 121 196 159 229 177 150 217 236 136 120 165 283 169 180 200 177 184 174 170 206 205 252 37 234 253 243 283 260 267 252 219 204
312 312 306 295 266 214 218 228 222 209 189 157 134 161 279 246 177 150 196 214 208 180 180 141 261 145 125 136 146 193 206 198 103 67 35 224 280 294 261 255 258 231 198 208 205
310 312 311 293 219 209 231 230 225 219 154 155 193 180 202 218 179 177 180 207 229 193 163 201 99 238 134 143 231 178 224 111 359 186 246 272 266 233 273 246 224 233 226 222 221
302 309 303 297 203 206 215 228 236 243 242 239 236 205 206 169 201 211 210 256 213 171 134 139 126 166 84 205 182 156 204 201 138 168 183 273 258 220 236 209 212 232 233 226 221
269 245 284 311 252 231 230 217 270 271 234 242 283 224 223 213 213 218 217 230 164 148 160 217 150 172 205 261 357 243 189 165 142 224 230 179 256 275 264 178 207 257 256 244 235
281 252 275 277 270 283 274 264 272 272 292 280 243 245 256 244 240 199 214 253 173 153 172 191 203 89 341 353 354 207 208 206 116 90 216 150 254 301 185 86 72 147 120 218 226
320 287 242 219 245 263 291 275 264 272 288 267 284 311 287 246 235 242 229 247 170 183 176 125 198 204 219 192 135 197 211 197 162 159 221 230 218 336 282 218 200 199 140 241 223
306 280 262 276 273 271 278 293 289 284 320 309 289 233 255 257 260 245 239 165 128 179 101 164 209 206 230 188 174 197 190 203 206 227 196 249 225 226 243 235 246 280 293 264 244
309 346 313 272 295 310 329 303 278 318 343 277 271 327 296 288 262 275 315 225 231 173 176 198 231 162 252 231 215 242 253 212 224 243 252 262 269 16 282 291 313 299 290 280 272
284 289 300 298 314 301 278 295 276 313 282 288 335 329 320 318 359 318 281 273 281 259 179 171 170 168 236 195 235 219 231 230 226 210 223 243 251 216 262 264 258 262 271 273 276
Wind_Speed_850mb
14 16 17 18 19 19 19 21 23 26 26 26 26 29 28 30 29 31 33 28 19 15 21 16 13 15 19 20 24 17 4 9 11 12 13 10 9 11 15 23 24 24 15 16 45
18 18 19 21 22 24 23 23 24 25 28 28 27 28 27 29 30 37 36 32 26 22 18 14 10 10 11 12 19 12 9 16 9 4 8 11 7 18 13 12 13 25 26 27 49
22 25 26 27 26 25 26 27 28 28 27 28 27 26 25 27 30 12 10 31 32 22 17 12 16 15 6 9 12 13 11 7 5 5 9 9 6 11 12 10 30 55 45 41 54
27 28 28 31 34 33 31 31 30 32 30 29 27 26 23 20 11 5 2 9 18 18 14 15 15 20 6 8 21 5 11 12 6 8 8 6 13 10 29 22 21 46 50 51 57
28 30 32 34 36 37 36 34 33 32 32 31 26 24 23 16 22 22 19 17 15 17 17 19 17 8 14 9 6 9 7 9 16 17 20 19 22 20 24 49 24 23 46 57 59
29 30 32 37 42 37 34 34 34 32 33 31 28 24 22 12 21 21 19 18 15 21 24 26 9 11 10 10 18 13 10 17 18 24 16 10 11 10 25 48 51 35 40 58 65
28 29 33 36 44 38 37 35 34 32 31 29 28 26 28 38 26 21 18 16 19 25 27 28 25 13 4 4 8 7 7 10 18 15 10 4 20 27 62 53 47 67 64 61 61
32 33 34 37 41 33 40 38 35 31 28 27 24 23 20 24 24 24 23 19 17 24 27 23 25 15 10 5 2 7 1 4 2 16 7 11 28 7 7 44 62 55 69 65 73
37 38 42 44 44 38 39 44 33 25 20 19 18 16 18 17 20 25 22 17 14 14 18 18 18 11 5 3 4 3 10 10 9 16 8 12 19 13 7 10 41 61 64 67 74
44 42 43 46 46 43 43 44 23 16 11 12 17 10 23 13 14 16 21 20 11 12 11 11 9 5 2 8 12 12 11 11 10 11 8 9 44 34 53 39 40 40 51 66 69
46 45 46 43 44 42 42 33 15 7 9 20 16 20 12 16 13 14 20 21 13 10 10 7 5 19 28 18 4 5 6 7 5 6 6 18 36 37 39 34 42 62 73 68 76
51 48 48 43 40 34 33 18 19 22 27 41 51 53 43 20 9 22 23 20 14 13 9 4 17 16 5 11 12 9 8 12 8 3 5 13 35 37 35 28 51 61 65 86 87
44 44 41 40 38 26 32 24 33 28 12 20 22 20 27 33 18 24 33 19 10 12 16 15 7 7 10 7 10 8 11 7 10 5 9 12 23 16 16 26 45 60 69 71 84
56 53 49 43 28 21 28 28 35 25 7 12 9 9 14 13 9 19 34 17 8 21 13 14 5 10 8 10 14 9 8 4 4 2 9 2 14 14 15 23 13 33 47 67 74
60 65 60 39 41 40 28 29 29 9 9 7 7 13 15 12 9 9 21 12 12 12 12 13 13 9 8 10 14 10 5 6 3 3 8 5 7 17 11 16 22 16 41 50 57
49 49 50 47 32 42 32 22 20 4 18 8 12 13 9 10 6 11 8 6 4 9 1 6 2 6 8 6 5 10 10 13 9 5 5 16 15 9 11 12 9 5 15 23 28
55 54 48 38 34 24 25 11 6 12 7 9 11 11 9 13 11 12 12 13 13 9 10 1 8 4 7 8 7 5 11 2 5 2 14 6 9 11 20 19 12 7 20 17 23
58 62 64 54 38 47 39 2 22 14 17 2 6 5 11 13 9 15 12 8 15 4 7 14 10 18 12 11 13 13 12 10 15 9 7 3 15 14 21 18 35 36 26 21 27
64 70 77 47 28 49 32 24 22 21 16 19 6 8 8 7 10 9 17 12 18 29 21 11 10 5 3 2 6 12 12 5 9 3 6 10 15 20 19 21 10 15 23 31 33
61 66 65 19 30 42 24 56 21 21 3 9 22 18 16 10 15 17 18 11 12 29 3 14 3 1 4 3 4 9 2 5 4 4 9 10 11 15 10 13 12 12 23 34 31
52 27 20 25 28 38 31 35 31 58 20 25 32 17 15 15 13 9 11 9 13 11 6 8 8 0 4 16 23 9 7 4 5 8 9 4 12 14 15 14 18 21 34 32 32
37 5 10 31 15 14 30 15 20 18 35 46 5 26 33 22 13 29 25 16 20 14 16 10 9 10 18 2 2 4 12 14 9 12 9 5 21 4 10 5 11 7 12 29 36
22 26 34 34 10 17 15 19 11 30 17 10 16 24 25 28 16 17 12 8 28 21 19 11 7 2 11 8 8 9 13 9 7 5 17 12 14 3 5 5 5 7 3 2 20
19 8 9 20 38 28 34 20 29 23 15 17 15 14 9 19 30 12 13 5 10 12 32 21 6 11 19 11 9 9 11 25 12 7 18 34 16 5 4 9 11 14 4 11 19
15 7 13 6 9 13 18 18 40 29 10 15 11 32 39 16 30 32 30 7 4 16 1 16 19 29 45 16 10 10 9 19 34 49 17 49 28 17 16 17 14 22 29 23 27
15 10 22 8 15 16 8 9 30 26 11 23 15 29 30 12 23 26 10 12 29 9 13 6 13 6 29 35 16 24 21 21 41 40 37 44 31 3 13 25 21 35 38 36 43
32 34 22 20 6 5 8 18 25 34 17 12 22 27 20 26 19 23 34 32 21 6 22 21 15 13 11 13 19 10 46 36 25 21 31 33 38 10 20 27 33 50 48 64 77
Wind_Direction_850mb
351 339 336 327 322 318 319 315 314 312 310 307 301 299 293 298 289 281 263 246 254 279 279 276 262 257 234 209 186 190 178 232 230 200 244 262 181 197 183 165 180 197 208 205 187
345 336 330 326 322 317 316 312 310 307 305 307 303 300 297 300 293 277 264 238 246 280 280 264 214 208 192 188 193 175 185 220 212 217 261 283 219 186 168 172 198 205 204 190 185
347 340 335 331 325 318 313 313 309 303 298 302 302 299 301 310 305 277 280 242 258 269 252 250 198 184 198 188 205 196 218 204 266 276 275 276 271 207 168 224 209 207 198 187 186
352 345 338 333 329 324 319 311 306 303 299 300 296 294 296 299 280 290 258 264 272 253 229 191 200 172 160 204 215 233 251 253 259 268 295 268 297 273 222 227 251 235 221 199 197
356 352 347 342 333 324 317 311 306 301 295 296 289 283 285 274 258 269 273 277 267 226 200 196 229 219 164 189 224 221 261 261 254 256 264 268 251 242 250 238 241 217 214 214 214
3 359 354 350 342 332 320 310 305 300 297 294 285 277 268 248 263 265 269 268 253 218 207 206 235 269 273 215 167 193 222 260 254 249 241 235 256 232 244 237 230 214 212 220 220
360 356 353 351 350 342 331 318 306 297 293 287 279 272 262 263 262 262 267 262 240 224 221 220 229 252 300 285 279 190 253 282 224 223 239 199 280 231 247 239 235 229 231 228 227
346 346 346 346 349 338 339 329 312 295 283 276 267 264 259 259 253 249 251 244 240 227 222 223 225 244 243 197 18 289 123 265 198 149 203 150 264 226 320 231 235 236 234 230 229
337 337 338 340 344 342 337 334 315 288 267 255 252 240 262 260 245 237 230 225 220 216 208 204 191 210 188 154 343 190 275 219 301 199 139 172 268 262 224 241 243 239 234 233 231
331 330 331 332 335 337 341 341 324 305 273 254 233 267 243 246 233 226 217 208 190 175 162 178 189 167 226 157 222 204 220 251 232 206 198 210 262 268 269 266 255 253 245 237 236
322 322 325 328 326 330 338 342 337 295 282 244 261 229 241 232 237 217 203 194 179 179 182 209 149 213 205 199 178 147 222 262 277 203 211 229 257 261 272 262 255 249 247 243 238
309 311 315 321 322 322 334 8 346 303 298 277 257 245 249 225 236 218 194 180 175 195 129 49 237 237 244 207 229 230 250 260 259 146 205 292 273 274 265 250 238 244 237 241 241
304 306 308 318 323 309 335 337 335 328 264 281 240 235 234 229 227 212 193 187 178 169 195 178 222 146 167 180 188 228 207 219 236 312 227 307 274 257 259 247 255 245 245 245 243
288 292 299 304 309 301 319 323 332 332 33 260 217 224 188 170 241 203 193 186 186 205 174 230 226 176 173 212 166 247 206 162 170 121 248 170 286 281 276 277 254 254 242 243 243
291 287 282 285 290 293 298 305 324 337 321 216 185 165 168 187 144 195 188 181 180 183 126 236 174 176 184 208 167 227 118 141 109 183 355 232 280 272 272 277 263 271 256 246 243
320 315 295 277 263 277 281 276 305 60 245 245 153 173 148 199 199 133 167 191 135 132 127 253 329 200 200 79 36 132 70 43 47 68 296 199 190 232 228 238 286 295 311 246 241
318 316 310 294 259 257 245 260 297 218 338 254 204 167 193 188 196 171 168 177 170 105 221 192 215 188 156 95 22 97 101 327 341 347 231 151 183 262 267 248 232 255 279 254 230
314 311 299 286 269 237 246 233 222 224 240 304 143 121 196 159 229 177 150 217 236 136 120 165 283 169 180 200 177 184 174 170 206 205 252 37 234 253 243 283 260 267 252 219 204
312 312 306 295 266 214 218 228 222 209 189 157 134 161 279 246 177 150 196 214 208 180 180 141 261 145 125 136 146 193 206 198 103 67 35 224 280 294 261 255 258 231 198 208 205
310 312 311 293 219 209 231 230 225 219 154 155 193 180 202 218 179 177 180 207 229 193 163 201 99 238 134 143 231 178 224 111 359 186 246 272 266 233 273 246 224 233 226 222 221
302 309 303 297 203 206 215 228 236 243 242 239 236 205 206 169 201 211 210 256 213 171 134 139 126 166 84 205 182 156 204 201 138 168 183 273 258 220 236 209 212 232 233 226 221
269 245 284 311 252 231 230 217 270 271 234 242 283 224 223 213 213 218 217 230 164 148 160 217 150 172 205 261 357 243 189 165 142 224 230 179 256 275 264 178 207 257 256 244 235
281 252 275 277 270 283 274 264 272 272 292 280 243 245 256 244 240 199 214 253 173 153 172 191 203 89 341 353 354 207 208 206 116 90 216 150 254 301 185 86 72 147 120 218 226
320 287 242 219 245 263 291 275 264 272 288 267 284 311 287 246 235 242 229 247 170 183 176 125 198 204 219 192 135 197 211 197 162 159 221 230 218 336 282 218 200 199 140 241 223
306 280 262 276 273 271 278 293 289 284 320 309 289 233 255 257 260 245 239 165 128 179 101 164 209 206 230 188 174 197 190 203 206 227 196 249 225 226 243 235 246 280 293 264 244
309 346 313 272 295 310 329 303 278 318 343 277 271 327 296 288 262 275 315 225 231 173 176 198 231 162 252 231 215 242 253 212 224 243 252 262 269 16 282 291 313 299 290 280 272
284 289 300 298 314 301 278 295 276 313 282 288 335 329 320 318 359 318 281 273 281 259 179 171 170 168 236 195 235 219 231 230 226 210 223 243 251 216 262 264 258 262 271 273 276